Location: Dittelspoint
(48.7198°N, 10.7214°E)
Time: 08:56:27
(UTC+00:00)

Meteor 2-3 Rocket - Pass Details

Date: 09 April 2020
Orbit: 842 x 885 km, 81.2° (Epoch: 01 June)

Event Time Altitude Azimuth Distance (km) Brightness Sun altitude
Rises 21:47:27 0° 344° (NNW) 3,480 8.1 -29.8°
Reaches altitude 10° 21:49:58 10° 339° (NNW) 2,532 7.1 -30.0°
Enters shadow 21:55:23 51° 270° (W) 1,085 4.3 -30.4°
